Weather History for KSMO - August, 2013

Change the Weather History Date:

Saturday, August 3, 2013

  Actual Average Record
Temperature  
Mean Temperature 68 °F -  
Max Temperature 73 °F 80 °F - (-1)
Min Temperature 63 °F 63 °F - (-1)
Cooling Degree Days 3    
Growing Degree Days 18 (Base 50)    
Moisture  
Dew Point 58 °F    
Average Humidity 74    
Maximum Humidity 81    
Minimum Humidity 61    
Precipitation  
Precipitation 0.00 in - - ()
Sea Level Pressure  
Sea Level Pressure 29.97 in    
Wind  
Wind Speed 3 mph (SW)    
Max Wind Speed 13 mph    
Max Gust Speed 16 mph    
Visibility 8 miles    
Events      
Averages and records for this station are not official NWS values.
T = Trace of Precipitation, MM = Missing Value Source: NWS Daily Summary

Daily Weather History Graph

Daily Weather History Graph

Search for Another Location

Airport or City:

Trip Planner

Search our weather history database for the weather conditions in past years. The results will help you decide how hot, cold, wet, or windy it might be!

Date:

Astronomy

Aug. 03, 2013 Rise Set
Actual Time 6:06 AM PDT 7:52 PM PDT
Civil Twilight 5:39 AM PDT 8:19 PM PDT
Nautical Twilight 5:06 AM PDT 8:52 PM PDT
Astronomical Twilight 4:31 AM PDT 9:27 PM PDT
Moon 3:22 AM PDT (8/3) 5:37 PM PDT (8/3)
Length of Visible Light 14h 40m
Length of Day
13h 45m
Waning Crescent, 9% of the Moon is Illuminated
Aug 3
Waning Crescent
Aug 6
New
Aug 14
First Quarter
Aug 20
Full
Aug 28
Last Quarter

Hourly Weather History & Observations

Time (PDT) Temp. Dew Point Humidity Pressure Visibility Wind Dir Wind Speed Gust Speed Precip Events Conditions
12:51 AM 64.0 °F 57.9 °F 80% 29.97 in 10.0 mi Calm Calm - N/A   Overcast
1:51 AM 64.9 °F 57.9 °F 78% 29.96 in 10.0 mi Calm Calm - N/A   Overcast
2:51 AM 64.0 °F 57.9 °F 80% 29.96 in 9.0 mi Calm Calm - N/A   Overcast
3:51 AM 64.9 °F 57.9 °F 78% 29.95 in 8.0 mi Calm Calm - N/A   Overcast
4:51 AM 64.9 °F 57.9 °F 78% 29.95 in 8.0 mi Calm Calm - N/A   Overcast
5:51 AM 64.9 °F 57.9 °F 78% 29.96 in 8.0 mi Calm Calm - N/A   Overcast
6:51 AM 64.9 °F 57.9 °F 78% 29.97 in 7.0 mi Calm Calm - N/A   Overcast
7:51 AM 66.0 °F 57.9 °F 75% 29.99 in 5.0 mi Calm Calm - N/A   Haze
8:51 AM 66.0 °F 57.9 °F 75% 30.00 in 5.0 mi Calm Calm - N/A   Haze
9:51 AM 68.0 °F 57.9 °F 70% 29.99 in 6.0 mi SE 3.5 mph - N/A   Haze
10:51 AM 69.1 °F 59.0 °F 70% 30.00 in 7.0 mi WSW 4.6 mph - N/A   Overcast
11:36 AM 71.6 °F 59.0 °F 64% 30.00 in 7.0 mi SW 8.1 mph - N/A   Partly Cloudy
11:51 AM 72.0 °F 59.0 °F 64% 29.99 in 7.0 mi SW 6.9 mph - N/A   Partly Cloudy
12:51 PM 73.0 °F 59.0 °F 61% 29.99 in 7.0 mi SW 8.1 mph - N/A   Partly Cloudy
1:51 PM 72.0 °F 59.0 °F 64% 29.97 in 8.0 mi SW 8.1 mph - N/A   Clear
2:51 PM 71.1 °F 59.0 °F 66% 29.96 in 9.0 mi SW 10.4 mph 16.1 mph N/A   Clear
3:51 PM 71.1 °F 60.1 °F 68% 29.95 in 10.0 mi WSW 9.2 mph - N/A   Clear
4:51 PM 68.0 °F 59.0 °F 73% 29.95 in 10.0 mi WSW 11.5 mph - N/A   Scattered Clouds
5:16 PM 68.0 °F 59.0 °F 73% 29.95 in 10.0 mi WSW 12.7 mph - N/A   Mostly Cloudy
5:51 PM 66.9 °F 59.0 °F 76% 29.94 in 10.0 mi WSW 8.1 mph - N/A   Overcast
6:51 PM 64.9 °F 57.9 °F 78% 29.95 in 10.0 mi WSW 10.4 mph - N/A   Overcast
7:51 PM 64.0 °F 57.9 °F 80% 29.95 in 10.0 mi WSW 9.2 mph - N/A   Overcast
8:51 PM 64.0 °F 57.9 °F 80% 29.97 in 10.0 mi SW 6.9 mph - N/A   Overcast
9:51 PM 63.0 °F 57.0 °F 81% 29.98 in 10.0 mi WSW 4.6 mph - N/A   Overcast
10:51 PM 63.0 °F 57.0 °F 81% 29.98 in 10.0 mi SSW 3.5 mph - N/A   Overcast
11:51 PM 63.0 °F 57.0 °F 81% 29.98 in 10.0 mi WSW 3.5 mph - N/A   Overcast